Terminal Aerodrome Forecast
Issued by NWS Greer, SC

Home | Current Version | Previous Version | Text Only | Print | Product List | Glossary On
Versions: 1 2 3 4 5 6 7 8 9 10 11 12 13 14 15 16 17 18 19 20 21 22 23 24 25 26 27 28 29 30 31 32 33 34 35 36 37 38 39 40 41 42 43 44 45 46 47 48
000
FTUS42 KGSP 212000 AAA
TAFCLT
TAF AMD
KCLT 212058Z 2121/2218 30005KT P6SM FEW045 BKN250
     FM220100 26004KT P6SM FEW050 BKN250
     FM220800 29003KT P6SM SCT250
     FM221400 34006KT P6SM FEW060 SCT250=

USA.gov is the U.S. government's official web portal to all federal, state and local government web resources and services.